Miscellaneous Local Product
Issued by NWS North Platte, NE

Home | Current Version | Previous Version | Text Only | Print | Product List | Glossary On
Versions: 1 2 3 4 5 6 7 8 9 10 11 12 13 14 15 16 17 18 19 20 21 22 23 24 25 26 27 28 29 30 31 32 33 34 35 36 37 38 39 40 41 42 43 44 45 46 47 48 49 50
002
AXUS43 KLBF 070410
MISLBF


WESTERN AND NORTH CENTRAL NEBRASKA HOURLY WEATHER ROUNDUP
NATIONAL WEATHER SERVICE NORTH PLATTE NE
1000 PM CST SAT FEB 06 2016

NOTE: "FAIR" INDICATES FEW OR NO CLOUDS BELOW 12,000 FEET WITH NO
SIGNIFICANT WEATHER AND/OR OBSTRUCTIONS TO VISIBILITY.

NOTE: STATIONS NOT REPORTING VARIABLES SUCH AS SKY/WEATHER OR
PRESSURE ARE PROVIDED BY THE NEBRASKA DEPARTMENT OF
ROADS...RAWS...AND APRS NETWORKS...AND ARE NOT UNDER
NATIONAL WEATHER SERVICE QUALITY CONTROL.

...OBSERVATIONS IN AND NEAR THE EASTERN PANHANDLE OF NEBRASKA...

CITY           SKY/WX    TMP DP  RH WIND       PRES   REMARKS
PINE RIDGE     CLOUDY    34  25  69 W5        30.05R WCI  30
CHADRON        PTCLDY    35  27  72 W13       30.08R WCI  26
ALLIANCE       CLOUDY    33  24  69 MISG      30.04R
SIDNEY         CLOUDY    38  26  62 NW17      30.08R WCI  28
BIG SPRINGS      N/A     34  28  77 CALM        N/A
$$

...OBSERVATIONS IN NORTH CENTRAL NEBRASKA...

CITY           SKY/WX    TMP DP  RH WIND       PRES   REMARKS
VALENTINE      CLOUDY    39  27  62 W10       29.97R WCI  32
THEDFORD       CLOUDY    40  30  67 NW15      29.99R WCI  32
AINSWORTH      CLOUDY    37  29  74 NW7       29.96R WCI  31
O`NEILL        CLOUDY    39  29  67 NW13      29.92R WCI  32
ORD            CLOUDY    36  28  73 NW13      29.93R WCI  27
BROKEN BOW     CLOUDY    36  28  73 W13       29.95R WCI  27
BUTTE            N/A     41  32  69 W12G18      N/A
CHAMBERS         N/A     39  28  65 NW10        N/A  WCI  32
EWING            N/A     33  29  84 W5          N/A  WCI  28
$$

...OBSERVATIONS IN SOUTHWEST NEBRASKA AND FAR NORTHEAST COLORADO...

CITY           SKY/WX    TMP DP  RH WIND       PRES   REMARKS
WRAY           FAIR      33  27  77 W6        30.04R WCI  28
HOLYOKE        FAIR      34  27  75 N15       30.07R WCI  24
IMPERIAL       CLOUDY    34  23  64 NW12      30.06R WCI  25
OGALLALA       CLOUDY    38  25  59 W17       30.04S WCI  29
NORTH PLATTE   CLOUDY    32  24  72 NW8       30.00R WCI  25
MCCOOK         CLOUDY    36  25  64 W13       30.03R WCI  27
LEXINGTON      CLOUDY    35  26  70 W9        29.98R WCI  28
PAXTON           N/A     34  29  82 W3          N/A
STAPLETON        N/A     34  29  82 W3          N/A
GOTHENBURG       N/A     37  26  64 NW5         N/A  WCI  33
CALLAWAY         N/A     36  29  74 NW16        N/A  WCI  26
$$

...OBSERVATIONS IN CENTRAL LINCOLN COUNTY AREA...

CITY           SKY/WX    TMP DP  RH WIND       PRES   REMARKS
N.P. AIRPORT   CLOUDY    32  24  72 NW8       30.00R WCI  25
N.P. DOWNTOWN    N/A     36  28  73 W7          N/A  WCI  30
N.P. SOUTHEAST   N/A     38  28  67 NW8G15      N/A  WCI  32
N.P. HILLCREST   N/A     35  28  76 NW12        N/A  WCI  27
$$

...SOME OBSERVATIONS FROM AROUND THE REGION...

CITY           SKY/WX    TMP DP  RH WIND       PRES   REMARKS
DENVER         CLOUDY    42  16  34 W9        30.10S
LARAMIE        CLOUDY    31  15  52 W23G36    30.16F WCI  18
CHEYENNE       CLOUDY    39  15  37 W21G29    30.09S WCI  29
SCOTTSBLUFF    CLOUDY    38  25  59 NW23      30.09R WCI  27
RAPID CITY     MOCLDY    40  19  43 NW25G35   30.00R WCI  29
BISMARCK       CLOUDY    45  30  55 W17G26    29.74R
PIERRE         PTCLDY    41  26  55 W22       29.86S
WINNER         MOCLDY    41  29  62 W13       29.93R
SIOUX FALLS    CLOUDY    33  26  75 W8        29.83F WCI  26
OMAHA          CLOUDY    38  26  62 S10       29.95F WCI  31
GRAND ISLAND   CLOUDY    34  26  72 W17       29.94F WCI  23
KANSAS CITY    PTCLDY    41  28  60 SW15      30.08F
WICHITA          N/A     39  26  59 S13       30.13F WCI  31
OKLAHOMA CITY  CLEAR     33  26  75 S8        30.25F WCI  26
LIBERAL        CLEAR     36  12  38 SW13      30.12S WCI  27
HAYS           CLOUDY    36  19  51 SW15      30.05S WCI  26
GOODLAND       CLOUDY    34  22  61 SW16      30.04F WCI  24
$$




USA.gov is the U.S. government's official web portal to all federal, state and local government web resources and services.